| time (UTC) | temp F | wind direction | speed MPH | gust MPH | rain 1hr in | rain 24hr in | rain mn in | humidity % | barometer mb |
| 20260905182704 | 72 | 130 | 1.0 | 2.0 | 0.00 | 0.00 | 0.00 | 76 | 1009.8 |
| 20260905181205 | 72 | 110 | 1.0 | 7.0 | 0.00 | 0.00 | 0.00 | 75 | 1009.8 |
| 20260905180205 | 72 | 69 | 1.0 | 2.0 | 0.00 | 0.00 | 0.00 | 75 | 1009.9 |
| 20260905175204 | 72 | 227 | 1.0 | 3.0 | 0.00 | 0.00 | 0.00 | 75 | 1009.9 |
| 20260905174704 | 72 | 209 | 0.0 | 3.0 | 0.00 | 0.00 | 0.00 | 75 | 1009.8 |
| 20260905171704 | 73 | 52 | 0.0 | 5.0 | 0.00 | 0.00 | 0.00 | 76 | 1009.6 |
| 20260905170705 | 73 | 264 | 0.0 | 2.0 | 0.00 | 0.00 | 0.00 | 74 | 1009.5 |
| 20260905170204 | 73 | 338 | 1.0 | 3.0 | 0.00 | 0.00 | 0.00 | 73 | 1009.6 |
| 20260905165204 | 73 | 22 | 1.0 | 5.0 | 0.00 | 0.00 | 0.00 | 76 | 1009.6 |
| 20260905164204 | 72 | 245 | 1.0 | 5.0 | 0.00 | 0.00 | 0.00 | 75 | 1009.5 |
| 20260905163704 | 72 | 43 | 1.0 | 3.0 | 0.00 | 0.00 | 0.00 | 77 | 1009.6 |
| 20260905162704 | 72 | 74 | 1.0 | 7.0 | 0.00 | 0.00 | 0.00 | 76 | 1009.6 |
| 20260905162205 | 71 | 251 | 1.0 | 2.0 | 0.00 | 0.00 | 0.00 | 78 | 1009.7 |
| 20260905161204 | 71 | 80 | 0.0 | 2.0 | 0.00 | 0.00 | 0.00 | 80 | 1009.8 |
| 20260905154705 | 71 | 62 | 1.0 | 2.0 | 0.00 | 0.00 | 0.00 | 79 | 1009.8 |
| 20260905153704 | 71 | 39 | 0.0 | 3.0 | 0.00 | 0.00 | 0.00 | 81 | 1009.8 |
| 20260905152704 | 70 | 84 | 1.0 | 5.0 | 0.00 | 0.00 | 0.00 | 82 | 1009.9 |
| 20260905152205 | 70 | 151 | 0.0 | 2.0 | 0.00 | 0.00 | 0.00 | 82 | 1009.9 |
| 20260905151204 | 70 | 64 | 0.0 | 2.0 | 0.00 | 0.00 | 0.00 | 85 | 1009.8 |
| 20260905144704 | 69 | 84 | 0.0 | 1.0 | 0.00 | 0.00 | 0.00 | 85 | 1010.0 |
| 20260905143205 | 69 | 84 | 0.0 | 0.0 | 0.00 | 0.00 | 0.00 | 84 | 1010.0 |
| 20260905142204 | 69 | 84 | 1.0 | 2.0 | 0.00 | 0.00 | 0.00 | 85 | 1010.0 |
| 20260905135204 | 68 | 133 | 0.0 | 2.0 | 0.00 | 0.00 | 0.00 | 89 | 1009.9 |
| 20260905134704 | 68 | 78 | 0.0 | 2.0 | 0.00 | 0.00 | 0.00 | 87 | 1009.9 |
| 20260905133204 | 67 | 54 | 0.0 | 2.0 | 0.00 | 0.00 | 0.00 | 88 | 1009.8 |
| 20260905132705 | 67 | 46 | 0.0 | 1.0 | 0.00 | 0.00 | 0.00 | 89 | 1009.7 |
| 20260905131704 | 66 | 39 | 0.0 | 0.0 | 0.00 | 0.00 | 0.00 | 91 | 1009.6 |
| 20260905130704 | 66 | 77 | 0.0 | 0.0 | 0.00 | 0.00 | 0.00 | 92 | 1009.5 |
| 20260905124704 | 65 | 267 | 0.0 | 0.0 | 0.00 | 0.00 | 0.00 | 95 | 1009.4 |
| 20260905124204 | 64 | 267 | 0.0 | 1.0 | 0.00 | 0.00 | 0.00 | 95 | 1009.4 |
| 20260905123705 | 64 | 267 | 0.0 | 2.0 | 0.00 | 0.00 | 0.00 | 95 | 1009.3 |
| 20260905123204 | 64 | 10 | 0.0 | 2.0 | 0.00 | 0.00 | 0.00 | 95 | 1009.3 |
| 20260905122704 | 64 | 65 | 0.0 | 2.0 | 0.00 | 0.00 | 0.00 | 95 | 1009.2 |
| 20260905121704 | 63 | 64 | 0.0 | 2.0 | 0.00 | 0.00 | 0.00 | 97 | 1009.0 |
| 20260905120704 | 62 | 337 | 0.0 | 1.0 | 0.00 | 0.00 | 0.00 | 98 | 1009.1 |
| 20260905120204 | 62 | 337 | 0.0 | 0.0 | 0.00 | 0.00 | 0.00 | 98 | 1009.0 |
| 20260905113704 | 61 | 81 | 0.0 | 0.0 | 0.00 | 0.00 | 0.00 | 98 | 1008.9 |
| 20260905113204 | 61 | 81 | 0.0 | 0.0 | 0.00 | 0.00 | 0.00 | 97 | 1008.9 |
| 20260905112704 | 61 | 81 | 0.0 | 0.0 | 0.00 | 0.00 | 0.00 | 97 | 1008.9 |
| 20260905111704 | 60 | 81 | 0.0 | 0.0 | 0.00 | 0.00 | 0.00 | 97 | 1008.9 |
| 20260905111204 | 60 | 81 | 0.0 | 0.0 | 0.00 | 0.00 | 0.00 | 97 | 1008.9 |
| 20260905105704 | 60 | 81 | 0.0 | 0.0 | 0.00 | 0.00 | 0.00 | 96 | 1008.7 |
| 20260905105204 | 60 | 81 | 0.0 | 0.0 | 0.00 | 0.00 | 0.00 | 96 | 1008.7 |
| 20260905103204 | 59 | 81 | 0.0 | 0.0 | 0.00 | 0.00 | 0.00 | 96 | 1008.7 |
| 20260905102704 | 59 | 80 | 0.0 | 0.0 | 0.00 | 0.00 | 0.00 | 96 | 1008.6 |
| 20260905102204 | 59 | 81 | 0.0 | 0.0 | 0.00 | 0.00 | 0.00 | 96 | 1008.5 |
| 20260905101704 | 59 | 80 | 0.0 | 0.0 | 0.00 | 0.00 | 0.00 | 96 | 1008.5 |
| 20260905101204 | 59 | 81 | 0.0 | 0.0 | 0.00 | 0.00 | 0.00 | 96 | 1008.4 |
| 20260905100204 | 59 | 80 | 0.0 | 0.0 | 0.00 | 0.00 | 0.00 | 96 | 1008.4 |
| 20260905095704 | 59 | 81 | 0.0 | 0.0 | 0.00 | 0.00 | 0.00 | 96 | 1008.4 |
| 20260905095204 | 59 | 81 | 0.0 | 0.0 | 0.00 | 0.00 | 0.00 | 96 | 1008.3 |
| 20260905094704 | 59 | 81 | 0.0 | 0.0 | 0.00 | 0.00 | 0.00 | 96 | 1008.3 |
| 20260905094204 | 59 | 81 | 0.0 | 0.0 | 0.00 | 0.00 | 0.00 | 96 | 1008.3 |
| 20260905093704 | 59 | 81 | 0.0 | 0.0 | 0.00 | 0.00 | 0.00 | 96 | 1008.3 |
| 20260905091704 | 59 | 80 | 0.0 | 0.0 | 0.00 | 0.00 | 0.00 | 95 | 1008.2 |
| 20260905090204 | 59 | 81 | 0.0 | 0.0 | 0.00 | 0.00 | 0.00 | 95 | 1008.2 |
| 20260905085703 | 59 | 80 | 0.0 | 0.0 | 0.00 | 0.00 | 0.00 | 95 | 1008.1 |
| 20260905083204 | 59 | 80 | 0.0 | 0.0 | 0.00 | 0.00 | 0.00 | 95 | 1008.0 |
| 20260905082704 | 59 | 80 | 0.0 | 0.0 | 0.00 | 0.00 | 0.00 | 95 | 1008.0 |
| 20260905082204 | 59 | 80 | 0.0 | 0.0 | 0.00 | 0.00 | 0.00 | 94 | 1008.0 |
| 20260905081204 | 59 | 81 | 0.0 | 0.0 | 0.00 | 0.00 | 0.00 | 95 | 1008.0 |
| 20260905080204 | 60 | 81 | 0.0 | 0.0 | 0.00 | 0.00 | 0.00 | 94 | 1008.0 |
| 20260905072204 | 60 | 80 | 0.0 | 0.0 | 0.00 | 0.00 | 0.00 | 94 | 1008.1 |
| 20260905071704 | 60 | 81 | 0.0 | 0.0 | 0.00 | 0.00 | 0.00 | 94 | 1008.2 |
| 20260905070204 | 60 | 81 | 0.0 | 0.0 | 0.00 | 0.00 | 0.00 | 94 | 1008.3 |
| 20260905064204 | 61 | 80 | 0.0 | 0.0 | 0.00 | 0.00 | 0.00 | 94 | 1008.4 |
| 20260905063203 | 61 | 80 | 0.0 | 0.0 | 0.00 | 0.00 | 0.00 | 94 | 1008.5 |
| 20260905062204 | 61 | 81 | 0.0 | 0.0 | 0.00 | 0.00 | 0.00 | 94 | 1008.4 |
| 20260905061704 | 61 | 80 | 0.0 | 0.0 | 0.00 | 0.00 | 0.00 | 94 | 1008.5 |
| 20260905060204 | 61 | 80 | 0.0 | 0.0 | 0.00 | 0.00 | 0.00 | 94 | 1008.7 |
| 20260905055703 | 61 | 81 | 0.0 | 0.0 | 0.00 | 0.00 | 0.00 | 94 | 1008.7 |
| 20260905054204 | 61 | 81 | 0.0 | 0.0 | 0.00 | 0.00 | 0.00 | 94 | 1008.6 |
| 20260905053704 | 61 | 81 | 0.0 | 0.0 | 0.00 | 0.00 | 0.00 | 94 | 1008.6 |
| 20260905052704 | 61 | 81 | 0.0 | 0.0 | 0.00 | 0.00 | 0.00 | 93 | 1008.6 |
| 20260905052203 | 61 | 80 | 0.0 | 0.0 | 0.00 | 0.00 | 0.00 | 93 | 1008.6 |
| 20260905051204 | 61 | 81 | 0.0 | 0.0 | 0.00 | 0.00 | 0.00 | 93 | 1008.7 |
| 20260905045204 | 62 | 80 | 0.0 | 0.0 | 0.00 | 0.00 | 0.00 | 93 | 1008.6 |
| 20260905044704 | 62 | 81 | 0.0 | 0.0 | 0.00 | 0.00 | 0.00 | 92 | 1008.6 |
| 20260905044204 | 62 | 81 | 0.0 | 0.0 | 0.00 | 0.00 | 0.00 | 93 | 1008.5 |
| 20260905043704 | 62 | 80 | 0.0 | 0.0 | 0.00 | 0.00 | 0.00 | 93 | 1008.5 |
| 20260905043203 | 62 | 81 | 0.0 | 0.0 | 0.00 | 0.00 | 0.00 | 92 | 1008.5 |
| 20260905042704 | 62 | 81 | 0.0 | 0.0 | 0.00 | 0.00 | 0.00 | 92 | 1008.5 |
| 20260905041704 | 62 | 81 | 0.0 | 0.0 | 0.00 | 0.00 | 0.00 | 92 | 1008.8 |
| 20260905040703 | 63 | 80 | 0.0 | 0.0 | 0.00 | 0.00 | 0.00 | 92 | 1008.7 |
| 20260905035703 | 63 | 81 | 0.0 | 0.0 | 0.00 | 0.00 | 0.00 | 91 | 1008.6 |
| 20260905034703 | 63 | 81 | 0.0 | 0.0 | 0.00 | 0.00 | 0.00 | 91 | 1008.5 |
| 20260905034204 | 63 | 81 | 0.0 | 0.0 | 0.00 | 0.00 | 0.00 | 91 | 1008.6 |
| 20260905033203 | 63 | 80 | 0.0 | 0.0 | 0.00 | 0.00 | 0.00 | 91 | 1008.7 |
| 20260905032204 | 63 | 81 | 0.0 | 0.0 | 0.00 | 0.00 | 0.00 | 90 | 1008.6 |
| 20260905031703 | 64 | 81 | 0.0 | 0.0 | 0.00 | 0.00 | 0.00 | 90 | 1008.6 |
| 20260905031204 | 64 | 81 | 0.0 | 0.0 | 0.00 | 0.00 | 0.00 | 90 | 1008.6 |
| 20260905030703 | 64 | 81 | 0.0 | 0.0 | 0.00 | 0.00 | 0.00 | 90 | 1008.7 |
| 20260905025703 | 64 | 81 | 0.0 | 0.0 | 0.00 | 0.00 | 0.00 | 90 | 1008.9 |
| 20260905024203 | 64 | 81 | 0.0 | 0.0 | 0.00 | 0.00 | 0.00 | 89 | 1008.9 |
| 20260905023704 | 64 | 81 | 0.0 | 0.0 | 0.00 | 0.00 | 0.00 | 89 | 1008.9 |
| 20260905021704 | 65 | 81 | 0.0 | 0.0 | 0.00 | 0.01 | 0.00 | 88 | 1008.9 |
| 20260905020703 | 65 | 80 | 0.0 | 0.0 | 0.00 | 0.01 | 0.00 | 87 | 1009.0 |
| 20260905015703 | 65 | 80 | 0.0 | 0.0 | 0.00 | 0.01 | 0.00 | 87 | 1009.0 |
| 20260905015204 | 66 | 81 | 0.0 | 0.0 | 0.00 | 0.01 | 0.00 | 87 | 1009.0 |
| 20260905014704 | 66 | 81 | 0.0 | 0.0 | 0.00 | 0.01 | 0.00 | 87 | 1009.0 |
| 20260905013703 | 66 | 80 | 0.0 | 0.0 | 0.00 | 0.01 | 0.00 | 86 | 1009.0 |
| 20260905013204 | 66 | 81 | 0.0 | 0.0 | 0.00 | 0.01 | 0.00 | 88 | 1009.1 |
| 20260905011204 | 67 | 81 | 0.0 | 0.0 | 0.00 | 0.01 | 0.00 | 86 | 1009.1 |
| 20260905005705 | 68 | 81 | 0.0 | 0.0 | 0.00 | 0.01 | 0.00 | 84 | 1009.1 |
| 20260905005205 | 68 | 81 | 0.0 | 0.0 | 0.00 | 0.01 | 0.00 | 83 | 1009.0 |
| 20260905004205 | 69 | 81 | 0.0 | 0.0 | 0.00 | 0.01 | 0.00 | 84 | 1008.9 |
| 20260905002704 | 69 | 80 | 0.0 | 0.0 | 0.00 | 0.01 | 0.00 | 81 | 1008.9 |
| 20260905002205 | 69 | 81 | 0.0 | 0.0 | 0.00 | 0.01 | 0.00 | 81 | 1008.9 |
| 20260905001204 | 70 | 81 | 0.0 | 0.0 | 0.00 | 0.01 | 0.00 | 81 | 1008.8 |
| 20260904233205 | 72 | 80 | 0.0 | 2.0 | 0.00 | 0.01 | 0.00 | 80 | 1008.3 |
| 20260904232704 | 73 | 81 | 0.0 | 3.0 | 0.00 | 0.01 | 0.00 | 77 | 1008.3 |
| 20260904231204 | 74 | 74 | 0.0 | 0.0 | 0.00 | 0.01 | 0.00 | 78 | 1008.2 |
| 20260904225705 | 75 | 74 | 0.0 | 0.0 | 0.00 | 0.01 | 0.00 | 73 | 1008.2 |
| 20260904222704 | 78 | 74 | 0.0 | 0.0 | 0.00 | 0.01 | 0.00 | 69 | 1008.0 |
| 20260904222205 | 78 | 74 | 0.0 | 1.0 | 0.00 | 0.01 | 0.00 | 64 | 1008.0 |
| 20260904221205 | 78 | 74 | 0.0 | 1.0 | 0.00 | 0.01 | 0.00 | 64 | 1007.9 |
| 20260904220704 | 78 | 74 | 1.0 | 2.0 | 0.00 | 0.01 | 0.00 | 63 | 1007.9 |
| 20260904215704 | 78 | 76 | 1.0 | 3.0 | 0.00 | 0.01 | 0.00 | 65 | 1007.9 |
| 20260904215209 | 78 | 70 | 1.0 | 3.0 | 0.00 | 0.01 | 0.00 | 65 | 1007.9 |
| 20260904214204 | 77 | 117 | 0.0 | 1.0 | 0.00 | 0.01 | 0.00 | 65 | 1007.8 |
| 20260904213704 | 77 | 117 | 0.0 | 2.0 | 0.00 | 0.01 | 0.00 | 65 | 1007.8 |
| 20260904212205 | 77 | 236 | 1.0 | 3.0 | 0.00 | 0.01 | 0.00 | 69 | 1007.9 |
| 20260904211204 | 77 | 250 | 1.0 | 3.0 | 0.00 | 0.01 | 0.00 | 66 | 1007.9 |
| 20260904210705 | 78 | 252 | 1.0 | 6.0 | 0.00 | 0.01 | 0.00 | 66 | 1008.0 |
| 20260904205704 | 78 | 199 | 1.0 | 3.0 | 0.00 | 0.01 | 0.00 | 67 | 1007.9 |
| 20260904204704 | 78 | 230 | 0.0 | 3.0 | 0.00 | 0.01 | 0.00 | 67 | 1007.9 |
| 20260904204204 | 78 | 231 | 0.0 | 1.0 | 0.00 | 0.01 | 0.00 | 68 | 1007.9 |
| 20260904203705 | 79 | 231 | 0.0 | 3.0 | 0.00 | 0.01 | 0.00 | 65 | 1007.9 |
| 20260904201205 | 79 | 350 | 0.0 | 3.0 | 0.00 | 0.01 | 0.00 | 61 | 1008.1 |
| 20260904194705 | 80 | 293 | 1.0 | 3.0 | 0.00 | 0.01 | 0.00 | 60 | 1007.9 |
| 20260904193211 | 81 | 231 | 1.0 | 3.0 | 0.00 | 0.01 | 0.00 | 59 | 1007.9 |
| 20260904191705 | 81 | 38 | 1.0 | 5.0 | 0.00 | 0.01 | 0.00 | 57 | 1007.7 |
| 20260904191204 | 81 | 304 | 1.0 | 7.0 | 0.00 | 0.01 | 0.00 | 57 | 1007.7 |
| 20260904190704 | 81 | 78 | 2.0 | 7.0 | 0.00 | 0.01 | 0.00 | 59 | 1007.7 |
| 20260904190204 | 81 | 310 | 1.0 | 3.0 | 0.00 | 0.01 | 0.00 | 59 | 1007.7 |
| 20260904185204 | 81 | 301 | 1.0 | 2.0 | 0.00 | 0.01 | 0.00 | 61 | 1007.8 |
| 20260904183705 | 81 | 49 | 1.0 | 3.0 | 0.00 | 0.01 | 0.00 | 59 | 1008.0 |